Dewpoint
22 19 18 22 19 18 15 15 16 18 22 39 37 37 41 51 52 53 54 54 55 54 55 56 62 63 62 65 67 67 66 67 67 69 69 69 68 69 70 69 69 70 71 72
19 16 19 21 20 17 15 13 14 17 19 32 39 38 39 46 49 51 52 53 53 54 54 55 59 62 62 64 66 66 67 68 68 68 69 69 69 70 70 70 71 71 70 71
13 16 19 19 19 18 15 13 13 15 19 38 40 40 40 41 45 48 50 51 52 52 52 54 56 60 62 61 65 65 67 69 69 70 70 70 70 70 70 69 69 70 71 71
13 17 18 17 19 19 15 15 14 16 18 27 37 32 40 41 39 41 47 49 50 52 52 53 55 59 60 62 64 64 67 70 70 70 69 69 68 67 68 69 70 70 71 71
19 19 18 18 17 19 16 15 16 16 18 22 34 33 37 42 41 42 44 48 49 50 51 52 55 56 60 61 63 65 66 70 71 70 69 69 68 68 68 68 69 70 71 71
20 20 19 18 18 18 16 12 11 17 18 21 22 33 34 36 40 42 44 44 48 49 51 51 54 55 58 60 63 65 66 69 71 70 70 69 68 68 67 67 68 70 70 70
21 20 16 18 17 14 13 8 6 7 10 14 23 32 31 36 42 43 43 44 45 48 49 50 53 54 57 59 63 65 67 68 69 70 69 69 69 68 67 66 68 69 69 69
20 19 19 14 16 15 10 6 5 5 9 14 19 27 30 35 40 44 44 45 43 44 47 49 52 55 56 59 63 66 66 67 69 68 70 70 69 69 69 68 68 69 69 68
18 18 21 19 16 14 11 5 5 5 15 13 18 24 31 36 38 44 44 45 44 43 44 48 51 54 55 59 63 66 67 66 69 69 68 69 70 70 71 70 68 68 67 67
14 16 20 20 17 14 11 8 3 4 1 2 10 17 19 24 36 39 43 43 44 44 43 45 47 52 56 57 62 66 67 67 68 70 70 69 69 69 71 71 69 66 66 66
12 13 14 20 19 16 12 7 6 3 3 2 4 6 15 18 27 36 43 43 43 43 45 44 46 50 54 57 61 66 68 67 68 69 70 70 70 70 69 72 71 69 66 67
16 10 10 11 15 19 17 12 7 4 4 7 3 5 17 17 22 37 41 42 42 42 44 46 45 46 52 57 59 64 69 68 69 70 70 70 71 71 70 69 71 70 69 67
32 14 9 9 10 12 16 14 10 7 7 6 8 6 13 14 25 36 41 40 40 42 43 45 47 47 50 56 58 63 68 69 69 70 70 71 71 72 71 70 70 71 69 69
30 26 16 12 12 12 13 14 12 7 5 5 6 9 11 14 24 37 40 41 41 41 40 41 45 49 50 56 58 61 65 69 70 71 70 70 71 72 72 72 71 71 71 69
33 26 22 22 18 13 14 14 14 10 6 5 5 6 7 8 16 24 41 41 41 39 38 38 41 48 51 56 58 60 64 68 70 71 71 71 71 72 73 73 72 71 71 71
33 28 26 23 21 14 12 14 16 14 10 6 7 7 8 8 18 20 36 39 38 37 38 41 43 46 52 56 58 60 62 68 69 70 71 72 72 72 72 73 73 72 72 71
32 30 26 21 23 16 12 14 16 17 17 11 8 11 17 16 24 28 32 39 38 37 34 43 46 48 52 55 58 59 62 66 69 70 71 71 72 72 73 73 73 73 71 72
30 30 28 24 22 16 14 15 14 14 16 18 13 13 15 15 16 26 33 37 39 35 36 46 49 49 51 54 57 60 61 64 68 69 70 71 72 72 73 73 73 73 73 71
31 29 26 21 26 22 22 18 14 14 14 21 20 18 18 19 28 37 37 28 18 29 33 37 47 52 53 53 55 58 61 63 64 68 69 70 71 71 73 73 73 73 73 72
26 25 26 24 20 20 21 26 28 27 20 43 28 25 25 25 20 37 46 43 41 41 34 31 41 52 53 55 55 56 59 61 63 64 66 69 71 71 71 73 73 73 73 72
36 36 26 25 22 24 36 33 29 21 28 45 42 39 37 33 33 43 47 44 44 44 46 41 35 42 50 57 58 56 58 59 61 63 64 66 70 70 71 73 73 73 72 73
33 36 32 30 30 24 44 46 25 36 48 47 47 47 46 48 52 53 52 48 46 47 50 47 41 39 40 58 61 58 58 59 61 61 63 66 69 70 71 73 73 73 73 72
34 36 34 39 38 43 45 56 58 57 56 58 54 55 57 58 60 63 64 64 65 66 66 67 52 55 66 54 63 62 61 61 63 64 65 68 70 71 73 73 73 72 71 70
40 44 41 39 41 49 50 53 57 57 57 57 58 59 60 60 62 63 65 66 67 68 69 70 70 69 67 68 63 64 66 65 67 67 72 73 73 73 73 73 72 71 69 68
42 42 43 43 46 51 50 51 55 56 56 56 56 57 58 61 62 63 64 66 67 68 69 70 70 71 71 72 71 72 72 71 72 73 73 72 71 68 63 61 66 68 65 68
46 44 41 45 50 50 49 51 49 49 49 52 53 53 55 57 58 60 62 64 65 65 67 67 68 69 69 69 69 70 72 71 71 68 67 66 63 61 60 60 57 51 58 63
Wind_Speed
16 18 26 21 17 16 13 14 19 22 6 5 28 30 31 37 33 33 32 32 32 34 30 21 32 31 26 23 26 28 28 24 21 15 17 14 14 11 9 12 11 16 17 15
17 25 17 14 15 19 20 24 30 18 20 14 19 32 30 38 39 40 37 33 34 31 29 28 29 32 32 28 28 28 28 26 22 19 16 9 15 11 12 10 10 13 17 16
24 12 21 18 21 20 24 27 26 18 16 2 15 5 14 20 24 26 32 35 34 36 33 30 30 33 33 32 31 32 29 29 26 20 15 9 7 3 9 8 11 15 16 15
19 22 19 28 23 23 27 25 22 16 15 17 12 8 16 22 20 25 30 32 33 34 33 32 35 33 34 34 30 30 28 29 26 24 23 22 19 20 17 14 13 16 17 18
15 28 30 25 27 27 24 22 19 19 18 18 10 12 14 17 26 21 30 35 34 36 36 35 37 38 38 34 32 31 30 28 27 28 26 24 20 19 15 12 14 15 17 18
29 15 24 26 23 26 22 18 21 15 18 25 25 26 18 24 24 30 28 30 38 36 36 37 39 35 33 32 31 29 30 29 28 29 27 28 25 23 18 17 13 16 16 18
18 29 19 19 22 24 23 21 18 21 24 23 22 24 23 31 31 36 35 34 37 37 36 35 33 33 32 33 32 30 32 31 29 31 29 28 27 24 22 20 18 17 19 16
24 19 30 20 28 27 20 28 21 20 17 12 17 18 28 28 28 39 40 35 32 36 37 38 38 38 36 35 34 34 34 33 30 30 29 27 25 21 19 20 18 20 21 20
16 22 7 26 23 29 21 26 25 23 9 15 9 11 14 25 23 36 38 33 34 40 39 41 39 39 39 35 36 38 36 34 33 32 29 27 24 23 19 21 18 19 17 17
16 9 20 28 27 29 29 12 17 10 33 33 12 17 21 19 28 27 34 37 39 35 40 39 35 39 37 37 37 36 37 38 36 34 30 28 27 25 21 19 23 21 19 19
30 22 18 14 25 28 22 26 11 17 20 27 25 33 18 24 18 26 35 41 40 37 35 39 38 36 39 37 34 35 34 35 32 32 30 28 27 25 25 21 21 23 21 22
22 25 31 38 22 19 33 27 24 24 19 15 32 50 7 22 22 20 30 39 39 27 25 33 38 34 32 33 33 36 34 35 34 33 31 31 27 25 26 27 24 21 24 23
12 14 26 21 26 26 15 23 32 17 14 34 27 21 17 16 12 16 19 16 22 18 20 15 21 29 33 34 35 34 34 37 35 33 32 30 29 27 29 29 27 23 25 22
17 12 23 37 25 14 18 27 24 32 33 25 43 16 12 4 7 17 26 28 31 29 22 23 24 27 31 34 36 35 35 36 35 34 34 33 32 32 31 29 27 25 26 22
16 11 10 22 22 32 25 22 32 37 38 39 29 26 23 22 17 15 26 27 24 33 29 26 28 29 31 32 35 34 32 33 35 35 35 36 33 31 29 27 27 25 25 25
12 8 15 17 19 32 36 29 30 35 35 31 18 20 20 27 22 18 20 25 29 25 17 19 28 35 37 35 35 36 35 35 34 34 37 34 32 30 30 28 27 25 23 24
8 7 17 10 9 28 34 46 28 21 26 28 30 18 19 17 16 16 15 19 22 24 23 20 27 34 35 38 40 38 36 33 36 37 33 32 31 31 31 28 26 26 26 21
16 18 9 13 18 26 38 25 31 21 18 18 23 21 29 30 27 17 15 16 26 19 14 18 25 25 34 34 31 33 31 33 35 35 33 31 31 31 28 28 28 25 24 25
30 20 7 7 10 8 11 19 26 18 24 19 21 25 27 28 8 2 7 6 15 15 15 14 21 25 18 26 30 27 27 30 32 32 33 32 33 31 29 30 29 25 24 23
35 29 19 14 7 9 12 8 25 10 17 5 18 18 18 17 20 9 4 6 7 2 11 13 14 23 29 29 21 31 34 31 33 34 35 34 31 31 32 30 28 24 25 24
6 5 17 21 17 15 12 6 11 12 6 6 12 18 19 13 11 13 8 2 1 1 2 6 12 16 25 25 28 30 26 31 38 37 34 31 31 32 30 26 22 25 25 21
9 8 8 7 8 14 37 18 12 14 11 17 13 14 20 16 14 12 9 6 4 3 2 2 4 14 19 20 30 31 31 38 36 29 27 27 28 27 24 27 25 24 23 22
15 8 11 6 8 23 20 11 9 18 21 9 12 17 24 20 17 17 18 17 14 8 6 6 7 8 5 18 23 30 37 30 27 26 27 26 26 28 28 30 26 25 23 21
15 14 6 1 6 18 25 19 15 22 20 19 22 17 19 24 17 19 19 17 16 14 13 10 9 7 4 9 21 23 17 23 27 30 28 25 27 26 25 24 26 25 24 24
6 12 9 4 18 19 17 21 6 20 20 23 25 23 18 21 19 19 19 17 16 15 14 13 12 11 11 11 2 17 18 22 19 22 27 26 22 22 21 15 12 19 14 23
4 5 12 3 7 5 9 17 18 31 26 21 20 26 22 21 22 19 20 16 16 16 15 15 12 11 11 16 19 17 5 29 31 26 20 16 20 22 18 23 22 25 25 9
Wind_Direction
214 214 228 226 226 236 250 257 260 268 324 134 167 165 171 176 176 179 183 185 190 189 198 184 183 186 186 180 179 181 183 189 187 184 188 193 203 213 227 215 209 192 190 189
222 232 226 221 232 234 240 251 260 290 282 216 193 179 176 176 184 183 185 188 192 195 191 190 177 183 189 181 185 180 183 187 189 187 189 189 202 212 213 208 216 213 196 194
213 223 212 215 228 230 235 235 250 247 294 276 152 147 184 191 193 192 191 189 192 192 191 192 186 185 188 187 184 185 181 184 185 183 179 181 183 192 210 216 219 216 199 192
231 229 211 213 224 224 238 234 243 252 262 258 176 206 209 217 212 198 197 195 195 197 198 190 191 188 192 193 189 184 179 179 182 179 184 193 197 211 224 215 218 204 192 195
213 202 218 215 216 219 240 242 246 237 247 248 247 214 210 192 228 214 196 198 197 198 198 195 195 196 194 190 190 189 183 178 179 184 187 191 199 208 212 215 216 203 189 196
223 236 206 218 221 222 230 248 255 241 233 241 235 224 217 216 223 226 206 202 199 199 200 201 200 197 195 193 190 188 185 184 179 182 186 191 199 205 210 223 215 199 189 195
229 232 233 211 212 222 211 213 236 244 234 241 226 225 227 212 215 208 208 205 202 199 199 202 199 199 197 193 190 187 187 188 183 184 187 193 199 202 210 211 210 197 189 193
214 235 220 224 213 217 215 207 213 218 233 253 235 227 231 232 216 200 208 207 200 199 199 199 198 199 198 193 187 187 188 190 188 188 190 195 199 205 208 204 197 196 192 194
203 232 249 218 226 205 223 215 213 231 244 271 240 232 242 234 214 208 207 197 200 201 200 200 199 198 198 193 190 188 187 191 190 192 193 198 200 203 202 202 188 188 184 185
226 257 221 233 220 238 215 190 200 204 227 241 241 228 241 216 224 202 206 201 201 198 201 204 201 199 198 195 191 188 188 189 190 193 194 197 202 205 201 194 192 193 192 190
216 220 239 224 228 222 218 216 220 206 217 229 248 252 217 247 243 219 200 198 204 193 193 201 204 201 197 194 187 190 189 191 192 193 195 198 202 202 205 205 198 193 194 197
277 220 232 232 228 214 225 221 209 219 219 228 230 247 163 221 244 233 215 203 206 191 183 196 205 202 194 193 189 189 187 190 193 192 194 199 199 196 203 208 208 194 200 199
324 234 233 246 247 244 224 229 219 204 191 227 223 245 195 225 250 233 211 186 188 190 210 211 206 196 191 191 193 190 187 193 193 191 194 198 200 198 203 207 206 199 205 199
342 250 244 236 225 210 218 225 218 213 218 225 234 229 246 245 226 221 207 207 193 199 222 212 203 198 195 192 191 193 193 192 191 193 195 197 199 203 205 206 204 202 203 202
4 281 291 291 264 211 212 208 214 218 220 216 234 224 234 248 237 256 232 213 207 195 194 194 212 201 198 192 193 196 194 192 191 193 196 200 200 203 205 205 204 203 204 208
334 286 327 295 257 230 219 223 230 218 218 227 218 219 202 237 220 228 228 225 198 208 208 205 220 200 194 191 191 193 193 193 190 197 203 197 200 201 203 203 202 200 200 205
280 297 348 281 302 222 232 218 211 216 218 218 214 207 188 201 205 206 235 223 222 208 197 197 205 197 197 192 190 191 193 188 191 199 201 200 197 201 202 201 198 199 200 189
243 271 272 282 300 218 219 219 219 218 230 225 228 223 208 216 222 210 175 204 223 222 252 171 181 200 195 196 193 192 189 188 192 199 200 199 199 199 199 199 201 197 192 194
222 234 255 261 291 265 174 197 200 199 234 228 235 229 217 209 144 39 272 226 203 191 187 175 179 189 196 195 191 188 185 192 196 198 201 200 199 196 194 199 199 193 187 191
222 215 205 258 303 251 208 204 130 143 208 253 206 207 199 161 183 164 200 132 135 186 221 215 198 186 188 204 201 183 187 191 198 202 203 200 196 195 194 195 195 190 188 191
63 56 205 253 248 270 339 309 127 177 195 126 147 145 146 150 170 163 181 175 196 276 33 206 221 207 188 191 180 191 199 195 203 206 203 195 194 194 193 188 184 185 187 181
144 145 170 270 281 244 352 320 198 148 139 124 109 109 101 97 92 97 114 140 198 194 226 226 245 219 227 192 182 191 193 204 204 201 200 198 195 188 183 179 179 179 175 176
165 176 180 154 243 309 298 347 23 100 103 73 96 112 110 102 92 89 88 86 80 63 36 353 217 218 213 197 199 190 205 199 191 185 190 183 181 177 176 176 171 167 169 161
170 151 127 104 262 356 353 333 37 59 81 94 88 82 98 107 96 91 85 80 78 67 62 47 43 7 259 204 205 214 206 187 177 178 171 168 168 163 165 168 168 163 161 162
186 147 105 292 304 348 345 355 354 72 72 73 73 78 80 92 79 87 81 76 74 69 59 60 67 60 33 16 136 159 154 154 154 153 153 144 141 140 125 111 130 151 153 163
17 138 160 204 325 269 328 337 65 69 57 40 58 75 64 69 78 76 73 70 69 66 55 49 50 66 61 49 32 20 129 145 140 135 133 126 130 125 109 107 87 39 88 87